Home > Weather > New Amsterdam > Past weeks

Flag for Guyana Weather for the Past 2 Weeks in New Amsterdam, Guyana

Now
73 °F

Heavy rain. Mostly cloudy.


Feels Like: 68 °F
Forecast: 77 / 85 °F
Wind: 5 mph from South

Location: Georgetown/Cheddi Jagan International Airport

Current Time: May 3, 2016 at 7:34:49 AM

Latest Report: May 3, 2016 at 6:00 AM


Visibility: 4 mi

Pressure: 29.95 "Hg

Humidity: 100%

Dew Point: 73 °F

Location of New AmsterdamLocation

Historic Weather in New Amsterdam — Graph

°F

New Amsterdam Temperature Yesterday

Maximum temperature yesterday: 79 °F (at 10:00 AM)
Minimum temperature yesterday: 73 °F (at 6:00 AM)
Average temperature yesterday: 77 °F

High & Low Weather Summary for the Past Weeks

 TemperatureHumidityPressure
High91 °F (Apr 20, 11:00 AM)100% (Apr 18, 6:00 AM)29.98 "Hg (Apr 18, 6:00 AM)
Low73 °F (Apr 18, 6:00 AM)59% (Apr 24, 2:00 PM)29.74 "Hg (Apr 25, 4:00 PM)
Average80 °F89%29.87 "Hg
* Reported Apr 18 6:00 AM — May 3 6:00 AM, New Amsterdam, Weather by CustomWeather, © 2016

Note: Actual official high and low records may vary slightly from our data, if they occured in-between our weather recording intervals... More about our weather records

Advertising

New Amsterdam Weather History for the Previous 24 Hours

Scroll right to see more
 ConditionsComfort  
Time TempWeatherWind HumidityBarometerVisibility
6:00 AM
Tue, May 3
73 °FHeavy rain. Mostly cloudy.5 mph100%29.95 "Hg4 mi
5:00 AM75 °FRain. Mostly cloudy.5 mph100%29.95 "Hg4 mi
4:00 AM75 °FRain. Mostly cloudy.5 mph100%29.92 "Hg4 mi
2:00 AM75 °FSprinkles. Passing clouds.5 mph100%29.92 "Hg6 mi
1:00 AM75 °FRain showers. Passing clouds.5 mph100%29.95 "Hg5 mi
11:00 PM
Mon, May 2
75 °FPartly cloudy.2 mph100%29.98 "HgN/A
10:00 PM77 °FPartly cloudy.No wind94%29.98 "HgN/A
9:00 PM77 °FPassing clouds.5 mph94%29.95 "Hg6 mi
8:00 PM77 °FLight rain. Partly cloudy.2 mph94%29.95 "Hg6 mi
7:00 PM77 °FLight rain. Partly cloudy.5 mph94%29.92 "HgN/A
6:00 PM79 °FSprinkles. Partly cloudy.9 mph89%29.92 "HgN/A
5:00 PM79 °FSprinkles. Partly sunny.7 mph89%29.89 "HgN/A
4:00 PM79 °FPartly sunny.7 mph89%29.89 "HgN/A
3:00 PM79 °FPartly sunny.7 mph89%29.89 "HgN/A
2:00 PM77 °FLight rain. Partly sunny.7 mph94%29.92 "Hg5 mi
1:00 PM77 °FLight rain. Partly sunny.9 mph94%29.95 "HgN/A
12:00 PM77 °FRain. Partly sunny.14 mph94%29.98 "Hg3 mi
11:00 AM77 °FRain. Partly sunny.9 mph94%29.98 "Hg4 mi
10:00 AM79 °FPartly sunny.7 mph89%29.98 "HgN/A
9:00 AM77 °FBroken clouds.No wind89%29.98 "HgN/A
7:00 AM73 °FLight rain. Mostly cloudy.No wind100%29.92 "Hg6 mi
Weather by CustomWeather, © 2016

See weather overviewHow to use our weather pages